This is the latest recevied weather packets stored in our database for station/object IZ1UQG-N2. If no packets are shown the sender has not sent any weather packets the latest 10 day(s).
| Time | Temp. | Humidity | Pressure | Rain* | Wind** | Luminosity | Snow |
|---|---|---|---|---|---|---|---|
| 1787582462 | 27.78° C | 52% | 1013.1 hPa | 0 mm | - | 130 W/m² | - |
| 1787582403 | 27.78° C | 52% | 1013.1 hPa | 0 mm | - | 134 W/m² | - |
| 1787582343 | 27.78° C | 52% | 1013.1 hPa | 0 mm | - | 141 W/m² | - |
| 1787582283 | 27.78° C | 52% | 1013.2 hPa | 0 mm | - | 149 W/m² | - |
| 1787582223 | 27.78° C | 52% | 1013.2 hPa | 0 mm | - | 160 W/m² | - |
| 1787582163 | 27.78° C | 52% | 1013.1 hPa | 0 mm | - | 557 W/m² | - |
| 1787582103 | 27.78° C | 52% | 1013.1 hPa | 0 mm | - | 568 W/m² | - |
| 1787582042 | 27.78° C | 52% | 1013.3 hPa | 0 mm | - | 570 W/m² | - |
| 1787581982 | 27.78° C | 51% | 1013.3 hPa | 0 mm | - | 471 W/m² | - |
| 1787581922 | 27.78° C | 52% | 1013.3 hPa | 0 mm | - | 517 W/m² | - |
| 1787581863 | 27.78° C | 51% | 1013.2 hPa | 0 mm | - | 592 W/m² | - |
| 1787581803 | 27.78° C | 51% | 1013.2 hPa | 0 mm | - | 622 W/m² | - |
| 1787581743 | 27.78° C | 51% | 1013.2 hPa | 0 mm | - | 635 W/m² | - |
| 1787581683 | 28.33° C | 50% | 1013.2 hPa | 0 mm | - | 635 W/m² | - |
| 1787581623 | 28.33° C | 51% | 1013.1 hPa | 0 mm | - | 631 W/m² | - |
| 1787581563 | 28.33° C | 51% | 1013.2 hPa | 0 mm | - | 621 W/m² | - |
| 1787581502 | 28.33° C | 51% | 1013.1 hPa | 0 mm | - | 592 W/m² | - |
| 1787581442 | 28.33° C | 51% | 1013.1 hPa | 0 mm | - | 571 W/m² | - |
| 1787581382 | 28.33° C | 51% | 1013.1 hPa | 0 mm | - | 594 W/m² | - |
| 1787581322 | 28.33° C | 51% | 1013.2 hPa | 0 mm | - | 615 W/m² | - |
| 1787581262 | 28.33° C | 51% | 1013.2 hPa | 0 mm | - | 626 W/m² | - |
| 1787581202 | 28.33° C | 51% | 1013.2 hPa | 0 mm | - | 626 W/m² | - |
| 1787581143 | 28.33° C | 51% | 1013.2 hPa | 0 mm | - | 638 W/m² | - |
| 1787581083 | 28.33° C | 51% | 1013.3 hPa | 0 mm | - | 633 W/m² | - |
| 1787581023 | 28.33° C | 51% | 1013.2 hPa | 0 mm | - | 638 W/m² | - |
* Rain latest hour (hover to see other rain measurements)
** Current wind speed in m/s (hover to see current wind gust speed)